Home > Weather > Kassel > Past weeks

Flag for Germany Past Weather in Kassel, Hesse, Germany — Yesterday and Last 2 Weeks

Now
63 °F

Sunny.


Feels Like: 63 °F
Forecast: 57 / 87 °F
Wind: 3 mph from East

Location: Kassel / Calden

Current Time: Aug 24, 2016 at 8:55:04 AM

Latest Report: Aug 24, 2016 at 7:50 AM


Visibility: 10 mi

Pressure: 30.27 "Hg

Humidity: 100%

Dew Point: 63 °F

Location of KasselLocation

Past Weather in Kassel — Graph

°F

Kassel Temperature Yesterday

Maximum temperature yesterday: 81 °F (at 2:20 PM)
Minimum temperature yesterday: 59 °F (at 7:20 AM)
Average temperature yesterday: 74 °F

High & Low Weather Summary for the Past Weeks

 TemperatureHumidityPressure
High81 °F (Aug 23, 2:20 PM)100% (Aug 10, 9:20 AM)30.36 "Hg (Aug 10, 9:20 AM)
Low45 °F (Aug 11, 7:20 AM)27% (Aug 18, 4:50 PM)29.80 "Hg (Aug 18, 3:50 PM)
Average65 °F64%30.11 "Hg
* Reported Aug 9 7:20 AM — Aug 24 7:20 AM, Kassel, Weather by CustomWeather, © 2016

Note: Actual official high and low records may vary slightly from our data, if they occured in-between our weather recording intervals... More about our weather records

Advertising

Kassel Weather History for the Previous 24 Hours

Scroll right to see more
 ConditionsComfort  
Time TempWeatherWind HumidityBarometerVisibility
7:20 AM
Wed, Aug 24
61 °FClear.2 mph94%30.27 "Hg10 mi
9:50 PM
Tue, Aug 23
68 °FClear.2 mph69%30.30 "Hg10 mi
9:20 PM72 °FSunny.3 mph65%30.30 "Hg10 mi
8:50 PM72 °FSunny.5 mph61%30.30 "Hg10 mi
8:20 PM73 °FSunny.5 mph53%30.30 "Hg10 mi
7:50 PM77 °FSunny.5 mph47%30.30 "Hg10 mi
7:20 PM79 °FSunny.7 mph45%30.30 "Hg10 mi
6:50 PM79 °FSunny.8 mph45%30.30 "Hg10 mi
6:20 PM81 °FSunny.5 mph42%30.30 "Hg10 mi
5:50 PM81 °FPassing clouds.7 mph39%30.30 "HgN/A
5:20 PM81 °FPassing clouds.7 mph39%30.30 "HgN/A
4:50 PM81 °FPassing clouds.5 mph39%30.30 "HgN/A
4:20 PM81 °FPassing clouds.9 mph39%30.30 "HgN/A
3:50 PM79 °FPassing clouds.8 mph42%30.30 "HgN/A
3:20 PM79 °FPassing clouds.8 mph42%30.33 "HgN/A
2:50 PM81 °FPassing clouds.5 mph39%30.33 "HgN/A
2:20 PM81 °FSunny.5 mph39%30.33 "Hg10 mi
1:50 PM79 °FSunny.3 mph39%30.33 "Hg10 mi
1:20 PM79 °FPassing clouds.6 mph39%30.33 "HgN/A
12:50 PM75 °FSunny.5 mph44%30.33 "Hg10 mi
12:20 PM75 °FSunny.6 mph44%30.36 "Hg10 mi
11:50 AM75 °FSunny.5 mph44%30.36 "Hg10 mi
11:20 AM72 °FPassing clouds.6 mph65%30.36 "HgN/A
10:50 AM72 °FPassing clouds.5 mph65%30.36 "HgN/A
10:20 AM68 °FSunny.2 mph69%30.36 "Hg10 mi
9:50 AM70 °FSunny.2 mph64%30.36 "Hg10 mi
9:20 AM66 °FSunny.2 mph78%30.36 "Hg10 mi
8:50 AM64 °FSunny.3 mph83%30.36 "Hg10 mi
8:20 AM61 °FSunny.3 mph94%30.36 "Hg10 mi
Weather by CustomWeather, © 2016

See weather overviewHow to use our weather pages